TimePDT,TemperatureF,Dew PointF,Humidity,Sea Level PressureIn,VisibilityMPH,Wind Direction,Wind SpeedMPH,Gust SpeedMPH,PrecipitationIn,Events,Conditions,WindDirDegrees,DateUTC
12:53 AM,32.0,27.0,82,30.22,10.0,WNW,4.6,-,N/A,,Clear,290,2013-10-22 07:53:00
1:53 AM,30.0,27.0,88,30.22,10.0,West,4.6,-,N/A,,Clear,260,2013-10-22 08:53:00
2:53 AM,32.0,27.0,82,30.21,10.0,West,5.8,-,N/A,,Clear,270,2013-10-22 09:53:00
3:53 AM,30.9,28.0,89,30.21,10.0,West,3.5,-,N/A,,Clear,280,2013-10-22 10:53:00
4:53 AM,28.9,26.1,89,30.22,10.0,West,6.9,-,N/A,,Clear,260,2013-10-22 11:53:00
5:53 AM,28.9,27.0,92,30.25,10.0,Calm,Calm,-,N/A,,Clear,0,2013-10-22 12:53:00
6:53 AM,24.1,21.0,88,30.28,10.0,NNE,3.5,-,N/A,,Clear,20,2013-10-22 13:53:00
7:53 AM,28.9,26.1,89,30.29,10.0,WNW,6.9,-,N/A,,Clear,290,2013-10-22 14:53:00
8:53 AM,42.1,34.0,73,30.28,10.0,Calm,Calm,-,N/A,,Clear,0,2013-10-22 15:53:00
9:53 AM,48.9,34.0,56,30.27,10.0,Calm,Calm,-,N/A,,Clear,0,2013-10-22 16:53:00
10:53 AM,55.0,35.1,47,30.24,10.0,Calm,Calm,-,N/A,,Clear,0,2013-10-22 17:53:00
11:53 AM,60.1,34.0,38,30.22,10.0,Variable,3.5,-,N/A,,Clear,0,2013-10-22 18:53:00
12:53 PM,63.0,33.1,33,30.19,10.0,Calm,Calm,-,N/A,,Clear,0,2013-10-22 19:53:00
1:53 PM,66.0,30.0,26,30.17,10.0,Variable,3.5,-,N/A,,Clear,0,2013-10-22 20:53:00
2:53 PM,66.9,30.0,25,30.14,10.0,East,6.9,-,N/A,,Clear,90,2013-10-22 21:53:00
3:53 PM,66.0,26.1,22,30.14,10.0,Calm,Calm,-,N/A,,Clear,0,2013-10-22 22:53:00
4:53 PM,66.9,28.9,24,30.14,10.0,Variable,3.5,-,N/A,,Clear,0,2013-10-22 23:53:00
5:53 PM,59.0,28.9,32,30.14,10.0,NE,5.8,-,N/A,,Clear,50,2013-10-23 00:53:00
6:53 PM,46.0,30.0,54,30.19,10.0,NNE,6.9,-,N/A,,Clear,30,2013-10-23 01:53:00
7:53 PM,37.9,27.0,65,30.19,10.0,WNW,4.6,-,N/A,,Clear,300,2013-10-23 02:53:00
8:53 PM,37.9,28.0,68,30.17,10.0,West,5.8,-,N/A,,Clear,270,2013-10-23 03:53:00
9:53 PM,34.0,26.1,73,30.17,10.0,West,6.9,-,N/A,,Clear,260,2013-10-23 04:53:00
10:53 PM,34.0,26.1,73,30.16,10.0,West,6.9,-,N/A,,Clear,270,2013-10-23 05:53:00
11:53 PM,30.0,24.1,79,30.16,10.0,WNW,5.8,-,N/A,,Clear,300,2013-10-23 06:53:00